Weather History for Belize, Belize

Change the Weather History Date:

Friday, June 20, 2014

  Actual Average Record
Temperature  
Mean Temperature 84 °F -  
Max Temperature 88 °F 88 °F 92 °F (2012)
Min Temperature 80 °F 76 °F 73 °F (2005)
Cooling Degree Days 19    
Growing Degree Days 34 (Base 50)    
Moisture  
Dew Point 75 °F    
Average Humidity 69    
Maximum Humidity 84    
Minimum Humidity 60    
Precipitation  
Precipitation 0.00 in 0.33 in - ()
Sea Level Pressure  
Sea Level Pressure 29.96 in    
Wind  
Wind Speed 10 mph ()    
Max Wind Speed 14 mph    
Max Gust Speed -    
Visibility 8.3 miles    
Events      
Averages and records for this station are not official NWS values.
T = Trace of Precipitation, MM = Missing Value Source: Averaged Metar Reports

Daily Weather History Graph

Daily Weather History Graph

Search for Another Location

Airport:

Trip Planner

Search our weather history database for the weather conditions in past years. The results will help you decide how hot, cold, wet, or windy it might be!

Date:

Astronomy

Jun. 20, 2014 Rise Set
Actual Time 5:19 AM CST 6:30 PM CST
Civil Twilight 4:55 AM CST 6:54 PM CST
Nautical Twilight 4:26 AM CST 7:22 PM CST
Astronomical Twilight 3:57 AM CST 7:52 PM CST
Moon 12:10 AM CST (6/20) 12:47 PM CST (6/20)
Length of Visible Light 13h 59m
Length of Day
13h 10m
Last Quarter, 39% of the Moon is Illuminated
Jun 20
Last Quarter
Jun 27
New
Jul 5
First Quarter
Jul 12
Full
Jul 18
Last Quarter

Hourly Weather History & Observations

Time (CST) Temp. Heat Index Dew Point Humidity Pressure Visibility Wind Dir Wind Speed Gust Speed Precip Events Conditions
12:00 AM 83 °F - 74 °F 69% 29.97 in 12 mi East 12.7 mph - -   Mostly Cloudy
3:00 AM 82 °F - 75 °F 75% 29.93 in 12 mi East 6.9 mph - -   Partly Cloudy
5:00 AM 82.4 °F 89.5 °F 75.2 °F 79% 29.93 in 6.2 mi East 8.1 mph - N/A   Scattered Clouds
6:00 AM 81 °F - 75 °F 78% 29.95 in 12 mi East 6.9 mph - -   Partly Cloudy
6:00 AM 80.6 °F 86.2 °F 75.2 °F 84% 29.95 in 6.2 mi East 6.9 mph - N/A   Scattered Clouds
7:00 AM 84.2 °F 92.3 °F 75.2 °F 74% 29.96 in 6.2 mi East 10.4 mph - N/A   Partly Cloudy
8:00 AM 86.0 °F 96.9 °F 77.0 °F 74% 29.97 in 6.2 mi East 12.7 mph - N/A   Scattered Clouds
9:00 AM 86 °F - 76 °F 64% 29.99 in 12 mi East 12.7 mph - -   Scattered Clouds
9:00 AM 86.0 °F 95.1 °F 75.2 °F 70% 29.97 in 6.2 mi East 12.7 mph - N/A   Partly Cloudy
10:00 AM 86.0 °F 93.4 °F 73.4 °F 66% 29.98 in 6.2 mi East 12.7 mph - N/A   Scattered Clouds
11:00 AM 87.8 °F 97.6 °F 75.2 °F 66% 29.98 in 6.2 mi East 10.4 mph - N/A   Scattered Clouds
12:00 PM 87 °F - 75 °F 60% 29.98 in 12 mi East 13.8 mph - -   Partly Cloudy
12:00 PM 87.8 °F 97.6 °F 75.2 °F 66% 29.98 in 6.2 mi East 13.8 mph - N/A   Scattered Clouds
1:00 PM 87.8 °F 99.7 °F 77.0 °F 70% 29.97 in 6.2 mi East 11.5 mph - N/A   Scattered Clouds
2:00 PM 87.8 °F 97.6 °F 75.2 °F 66% 29.95 in 6.2 mi East 12.7 mph - N/A   Scattered Clouds
3:00 PM 87 °F - 76 °F 62% 29.94 in 12 mi East 12.7 mph - -   Partly Cloudy
3:00 PM 87.8 °F 97.6 °F 75.2 °F 66% 29.94 in 6.2 mi East 12.7 mph - N/A   Scattered Clouds
4:00 PM 87.8 °F 95.6 °F 73.4 °F 62% 29.93 in 6.2 mi East 11.5 mph - N/A   Partly Cloudy
5:00 PM 86.0 °F 95.1 °F 75.2 °F 70% 29.92 in 6.2 mi ENE 13.8 mph - N/A   Scattered Clouds
6:00 PM 85 °F - 74 °F 62% 29.94 in 12 mi ENE 12.7 mph - -   Partly Cloudy
6:00 PM 84.2 °F 90.9 °F 73.4 °F 70% 29.93 in 6.2 mi ENE 12.7 mph - N/A   Scattered Clouds
9:00 PM 83 °F - 75 °F 70% 29.97 in 12 mi East 11.5 mph - -   Partly Cloudy